This demonstration page uses our WeatherBlox Daily Observations layout. Learn more.

41.55636, -103.73856

Hourly Observations for July 2, 2019

Temp ( °F °C ) Dew Point ( °F °C ) Humidity (%) Winds ( mph kmh ) Pressure ( in mb ) Visibility ( mi km ) Precip ( " mm )
12:58 am 00:58 Mostly Cloudy 71 21.5 58 14.7 65 65 ESE 6 9 29.93 1014 10 16.0934 0 0
1:58 am 01:58 Mostly Cloudy 70 21.2 60 15.7 71 71 ENE 8 13 29.97 1015 10 16.0934 0 0
2:58 am 02:58 Mostly Cloudy 69 20.6 59 15 70 70 E 13 20 29.96 1015 10 16.0934 0 0
3:58 am 03:58 Mostly Cloudy with Heavy Thunderstorms 56 13.1 53 11.5 90 90 NE 28 44 30.09 1019 7 11.26538 1.7 43.18
4:58 am 04:58 Mostly Cloudy 58 14.6 55 12.5 87 87 SSE 6 9 30 1016 10 16.0934 0.09 2.286
5:58 am 05:58 Mostly Cloudy 61 15.9 55 12.6 81 81 SW 10 17 29.97 1015 10 16.0934 0 0
6:58 am 06:58 Mostly Cloudy with Light Showers 62 16.4 52 10.9 70 70 SSW 18 30 29.9 1013 10 16.0934 0 0
7:58 am 07:58 Mostly Cloudy 61 16.2 51 10.7 70 70 SW 12 19 29.91 1013 10 16.0934 0 0
8:58 am 08:58 Clear 58 14.3 51 10.6 79 79 S 6 9 29.94 1014 10 16.0934 0 0
9:58 am 09:58 Clear 57 13.7 50 9.9 78 78 Calm 29.94 1014 10 16.0934 0 0
10:58 am 10:58 Clear 57 14.1 48 9.1 72 72 SSW 6 9 29.94 1014 10 16.0934 0 0
11:58 am 11:58 Sunny 53 11.9 49 9.6 86 86 ESE 8 13 29.97 1015 10 16.0934 0 0
12:58 pm 12:58 Sunny 58 14.4 52 11.2 81 81 SSE 6 9 29.95 1014 10 16.0934 0 0
1:58 pm 13:58 Sunny 62 16.6 55 12.6 77 77 SW 9 15 29.94 1014 10 16.0934 0 0
2:58 pm 14:58 Sunny 67 19.4 57 13.8 70 70 SW 10 17 29.93 1014 10 16.0934 0 0
3:58 pm 15:58 Sunny 72 22.4 58 14.3 60 60 SSW 9 15 29.95 1014 10 16.0934 0 0
4:58 pm 16:58 Sunny 75 23.8 59 14.8 57 57 SSW 9 15 29.93 1014 10 16.0934 0 0
6:58 pm 18:58 Sunny 79 26.3 54 12.2 42 42 SSE 8 13 29.89 1012 10 16.0934 0 0
7:58 pm 19:58 Sunny 80 26.6 58 14.3 47 47 S 13 20 29.87 1011 10 16.0934 0 0
9:58 pm 21:58 Sunny 80 26.8 56 13.6 44 44 SSE 20 31 29.84 1010 10 16.0934 0 0
10:58 pm 22:58 Mostly Sunny 78 25.7 59 14.8 51 51 SSE 17 28 29.83 1010 10 16.0934 0 0
11:58 pm 23:58 Mostly Sunny 75 23.8 57 13.8 54 54 SSE 17 28 29.84 1010 10 16.0934 0 0

Powered by AerisWeather